Time,TemperatureF,DewpointF,PressureIn,WindDirection,WindDirectionDegrees,WindSpeedMPH,WindSpeedGustMPH,Humidity,HourlyPrecipIn,Conditions,Clouds,dailyrainin,SoftwareType,DateUTC
2013-05-06 00:04:00,55.2,29.4,29.82,SW,225,0.0,0.0,37,0.00,,---,0.00,VWS V14.01,2013-05-06 07:04:00,
2013-05-06 00:09:00,54.9,29.1,29.82,WSW,248,0.0,0.0,37,0.00,,---,0.00,VWS V14.01,2013-05-06 07:09:00,
2013-05-06 00:14:00,54.1,29.1,29.82,NW,315,0.0,0.0,38,0.00,,---,0.00,VWS V14.01,2013-05-06 07:14:00,
2013-05-06 00:19:00,54.0,29.0,29.82,NW,315,0.0,0.0,38,0.00,,---,0.00,VWS V14.01,2013-05-06 07:19:00,
2013-05-06 00:24:00,53.8,28.8,29.82,SW,225,0.0,0.0,38,0.00,,---,0.00,VWS V14.01,2013-05-06 07:24:00,
2013-05-06 00:29:00,54.1,29.8,29.82,SSW,202,0.0,0.0,39,0.00,,---,0.00,VWS V14.01,2013-05-06 07:29:00,
2013-05-06 00:34:00,54.0,29.0,29.82,SW,225,0.0,0.0,38,0.00,,---,0.00,VWS V14.01,2013-05-06 07:34:00,
2013-05-06 00:39:00,53.6,28.6,29.82,West,270,0.0,0.0,38,0.00,,---,0.00,VWS V14.01,2013-05-06 07:39:00,
2013-05-06 00:44:00,53.4,28.5,29.82,North,0,0.0,0.0,38,0.00,,---,0.00,VWS V14.01,2013-05-06 07:44:00,
2013-05-06 00:49:00,54.1,29.1,29.82,ESE,112,0.0,0.0,38,0.00,,---,0.00,VWS V14.01,2013-05-06 07:49:00,
2013-05-06 00:54:00,54.1,29.1,29.82,SSW,202,0.0,0.0,38,0.00,,---,0.00,VWS V14.01,2013-05-06 07:54:00,
2013-05-06 00:59:00,53.8,28.8,29.82,NNE,22,0.0,0.0,38,0.00,,---,0.00,VWS V14.01,2013-05-06 07:59:00,
2013-05-06 01:04:00,53.6,29.3,29.82,North,0,0.0,0.0,39,0.00,,---,0.00,VWS V14.01,2013-05-06 08:04:00,
2013-05-06 01:09:00,53.1,28.8,29.82,WSW,248,0.0,0.0,39,0.00,,---,0.00,VWS V14.01,2013-05-06 08:09:00,
2013-05-06 01:14:00,52.7,29.1,29.82,WSW,248,0.0,0.0,40,0.00,,---,0.00,VWS V14.01,2013-05-06 08:14:00,
2013-05-06 01:19:00,52.3,28.8,29.85,WNW,292,0.0,0.0,40,0.00,,---,0.00,VWS V14.01,2013-05-06 08:19:00,
2013-05-06 01:25:00,52.2,29.8,29.85,WNW,292,0.0,0.0,42,0.00,,---,0.00,VWS V14.01,2013-05-06 08:25:00,
2013-05-06 01:30:00,52.0,29.0,29.85,WSW,248,0.0,0.0,41,0.00,,---,0.00,VWS V14.01,2013-05-06 08:30:00,
2013-05-06 01:35:00,51.8,28.9,29.85,SW,225,0.0,0.0,41,0.00,,---,0.00,VWS V14.01,2013-05-06 08:35:00,
2013-05-06 01:40:00,51.1,28.8,29.85,SW,225,0.0,0.0,42,0.00,,---,0.00,VWS V14.01,2013-05-06 08:40:00,
2013-05-06 01:45:00,50.7,28.5,29.85,WSW,248,0.0,0.0,42,0.00,,---,0.00,VWS V14.01,2013-05-06 08:45:00,
2013-05-06 01:50:00,50.4,28.7,29.85,WSW,248,0.0,0.0,43,0.00,,---,0.00,VWS V14.01,2013-05-06 08:50:00,
2013-05-06 01:55:00,50.0,29.0,29.85,West,270,0.0,0.0,44,0.00,,---,0.00,VWS V14.01,2013-05-06 08:55:00,
2013-05-06 02:00:00,49.8,28.8,29.85,West,270,0.0,0.0,44,0.00,,---,0.00,VWS V14.01,2013-05-06 09:00:00,
2013-05-06 02:05:00,49.8,29.9,29.85,WSW,248,0.0,0.0,46,0.00,,---,0.00,VWS V14.01,2013-05-06 09:05:00,
2013-05-06 03:08:00,48.6,30.3,29.85,SW,225,0.0,0.0,49,0.00,,---,0.00,VWS V14.01,2013-05-06 10:08:00,
2013-05-06 03:13:00,48.7,30.5,29.85,SW,225,0.0,0.0,49,0.00,,---,0.00,VWS V14.01,2013-05-06 10:13:00,
2013-05-06 03:18:00,48.2,30.0,29.85,SW,225,0.0,0.0,49,0.00,,---,0.00,VWS V14.01,2013-05-06 10:18:00,
2013-05-06 03:23:00,48.6,30.3,29.85,SSW,202,0.0,0.0,49,0.00,,---,0.00,VWS V14.01,2013-05-06 10:23:00,
2013-05-06 03:28:00,48.7,29.9,29.85,WNW,292,0.0,0.0,48,0.00,,---,0.00,VWS V14.01,2013-05-06 10:28:00,
2013-05-06 03:33:00,48.7,29.9,29.85,WNW,292,0.0,0.0,48,0.00,,---,0.00,VWS V14.01,2013-05-06 10:33:00,
2013-05-06 03:38:00,48.6,29.8,29.85,NNW,338,0.0,0.0,48,0.00,,---,0.00,VWS V14.01,2013-05-06 10:38:00,
2013-05-06 03:43:00,48.4,29.6,29.85,NW,315,0.0,0.0,48,0.00,,---,0.00,VWS V14.01,2013-05-06 10:43:00,
2013-05-06 03:48:00,48.2,29.5,29.85,NNW,338,0.0,0.0,48,0.00,,---,0.00,VWS V14.01,2013-05-06 10:48:00,
2013-05-06 03:53:00,48.2,30.0,29.85,NW,315,0.0,0.0,49,0.00,,---,0.00,VWS V14.01,2013-05-06 10:53:00,
2013-05-06 03:58:00,48.2,30.5,29.85,WSW,248,0.0,0.0,50,0.00,,---,0.00,VWS V14.01,2013-05-06 10:58:00,
2013-05-06 04:03:00,48.2,30.0,29.85,WNW,292,0.0,0.0,49,0.00,,---,0.00,VWS V14.01,2013-05-06 11:03:00,
2013-05-06 04:08:00,47.8,30.1,29.85,West,270,0.0,0.0,50,0.00,,---,0.00,VWS V14.01,2013-05-06 11:08:00,
2013-05-06 04:14:00,48.0,30.3,29.85,West,270,0.0,0.0,50,0.00,,---,0.00,VWS V14.01,2013-05-06 11:14:00,
2013-05-06 04:19:00,47.7,30.0,29.88,SSW,202,0.0,0.0,50,0.00,,---,0.00,VWS V14.01,2013-05-06 11:19:00,
2013-05-06 04:24:00,47.7,29.5,29.88,SSW,202,0.0,0.0,49,0.00,,---,0.00,VWS V14.01,2013-05-06 11:24:00,
2013-05-06 04:29:00,48.0,29.8,29.88,NW,315,0.0,0.0,49,0.00,,---,0.00,VWS V14.01,2013-05-06 11:29:00,
2013-05-06 04:34:00,47.8,29.6,29.85,NW,315,0.0,0.0,49,0.00,,---,0.00,VWS V14.01,2013-05-06 11:34:00,
2013-05-06 04:39:00,47.8,30.1,29.85,West,270,0.0,0.0,50,0.00,,---,0.00,VWS V14.01,2013-05-06 11:39:00,
2013-05-06 04:44:00,47.5,29.8,29.85,West,270,0.0,0.0,50,0.00,,---,0.00,VWS V14.01,2013-05-06 11:44:00,
2013-05-06 04:49:00,47.3,30.1,29.85,NW,315,0.0,0.0,51,0.00,,---,0.00,VWS V14.01,2013-05-06 11:49:00,
2013-05-06 04:54:00,47.3,30.1,29.85,SW,225,0.0,0.0,51,0.00,,---,0.00,VWS V14.01,2013-05-06 11:54:00,
2013-05-06 04:59:00,47.1,29.5,29.85,SW,225,0.0,0.0,50,0.00,,---,0.00,VWS V14.01,2013-05-06 11:59:00,
2013-05-06 05:04:00,46.8,29.6,29.85,SW,225,0.0,0.0,51,0.00,,---,0.00,VWS V14.01,2013-05-06 12:04:00,
2013-05-06 05:09:00,46.2,29.1,29.85,SW,225,0.0,0.0,51,0.00,,---,0.00,VWS V14.01,2013-05-06 12:09:00,
2013-05-06 05:14:00,46.8,29.6,29.85,West,270,0.0,0.0,51,0.00,,---,0.00,VWS V14.01,2013-05-06 12:14:00,
2013-05-06 05:19:00,47.1,29.9,29.85,South,180,0.0,0.0,51,0.00,,---,0.00,VWS V14.01,2013-05-06 12:19:00,
2013-05-06 05:25:00,47.1,29.9,29.85,SW,225,0.0,0.0,51,0.00,,---,0.00,VWS V14.01,2013-05-06 12:25:00,
2013-05-06 05:30:00,47.3,30.1,29.85,SE,135,0.0,0.0,51,0.00,,---,0.00,VWS V14.01,2013-05-06 12:30:00,
2013-05-06 05:35:00,47.7,30.0,29.85,SE,135,0.0,0.0,50,0.00,,---,0.00,VWS V14.01,2013-05-06 12:35:00,
2013-05-06 05:40:00,47.8,30.1,29.85,South,180,0.0,0.0,50,0.00,,---,0.00,VWS V14.01,2013-05-06 12:40:00,
2013-05-06 05:45:00,48.2,30.0,29.85,North,0,0.0,0.0,49,0.00,,---,0.00,VWS V14.01,2013-05-06 12:45:00,
2013-05-06 05:50:00,48.2,30.0,29.88,NW,315,0.0,0.0,49,0.00,,---,0.00,VWS V14.01,2013-05-06 12:50:00,
2013-05-06 05:55:00,48.4,30.6,29.88,NNW,338,0.0,0.0,50,0.00,,---,0.00,VWS V14.01,2013-05-06 12:55:00,
2013-05-06 06:00:00,48.4,32.0,29.88,North,0,0.0,0.0,53,0.00,,---,0.00,VWS V14.01,2013-05-06 13:00:00,
2013-05-06 06:05:00,48.4,31.1,29.85,NW,315,0.0,0.0,51,0.00,,---,0.00,VWS V14.01,2013-05-06 13:05:00,
2013-05-06 06:10:00,48.7,31.4,29.85,NW,315,0.0,0.0,51,0.00,,---,0.00,VWS V14.01,2013-05-06 13:10:00,
2013-05-06 06:15:00,48.7,31.4,29.85,WNW,292,0.0,0.0,51,0.00,,---,0.00,VWS V14.01,2013-05-06 13:15:00,
2013-05-06 06:20:00,49.1,31.8,29.85,West,270,0.0,0.0,51,0.00,,---,0.00,VWS V14.01,2013-05-06 13:20:00,
2013-05-06 06:25:00,50.0,32.1,29.85,SW,225,0.0,0.0,50,0.00,,---,0.00,VWS V14.01,2013-05-06 13:25:00,
2013-05-06 06:30:00,50.9,32.9,29.85,SSW,202,0.0,0.0,50,0.00,,---,0.00,VWS V14.01,2013-05-06 13:30:00,
2013-05-06 06:35:00,52.3,33.8,29.85,South,180,0.0,0.0,49,0.00,,---,0.00,VWS V14.01,2013-05-06 13:35:00,
2013-05-06 06:41:00,53.6,33.3,29.85,South,180,3.1,3.1,46,0.00,,---,0.00,VWS V14.01,2013-05-06 13:41:00,
2013-05-06 06:46:00,55.4,33.9,29.85,South,180,3.8,3.8,44,0.00,,---,0.00,VWS V14.01,2013-05-06 13:46:00,
2013-05-06 06:51:00,56.5,33.7,29.88,SE,135,3.4,3.4,42,0.00,,---,0.00,VWS V14.01,2013-05-06 13:51:00,
2013-05-06 06:56:00,57.2,33.1,29.88,South,180,1.6,1.6,40,0.00,,---,0.00,VWS V14.01,2013-05-06 13:56:00,
2013-05-06 07:01:00,57.9,32.5,29.88,SE,135,2.9,2.9,38,0.00,,---,0.00,VWS V14.01,2013-05-06 14:01:00,
2013-05-06 07:06:00,58.5,33.0,29.88,SE,135,2.9,2.9,38,0.00,,---,0.00,VWS V14.01,2013-05-06 14:06:00,
2013-05-06 07:11:00,59.5,33.3,29.88,East,90,3.4,3.4,37,0.00,,---,0.00,VWS V14.01,2013-05-06 14:11:00,
2013-05-06 07:16:00,60.1,33.1,29.88,SE,135,1.6,1.6,36,0.00,,---,0.00,VWS V14.01,2013-05-06 14:16:00,
2013-05-06 07:21:00,60.4,33.4,29.88,East,90,3.4,3.4,36,0.00,,---,0.00,VWS V14.01,2013-05-06 14:21:00,
2013-05-06 07:26:00,61.3,33.5,29.88,SSW,202,2.9,2.9,35,0.00,,---,0.00,VWS V14.01,2013-05-06 14:26:00,
2013-05-06 07:31:00,61.9,34.0,29.88,SE,135,2.7,2.7,35,0.00,,---,0.00,VWS V14.01,2013-05-06 14:31:00,
2013-05-06 07:36:00,62.2,34.3,29.88,East,90,2.0,2.0,35,0.00,,---,0.00,VWS V14.01,2013-05-06 14:36:00,
2013-05-06 07:41:00,63.3,34.5,29.88,East,90,3.1,3.1,34,0.00,,---,0.00,VWS V14.01,2013-05-06 14:41:00,
2013-05-06 07:46:00,63.5,34.7,29.88,South,180,3.4,3.4,34,0.00,,---,0.00,VWS V14.01,2013-05-06 14:46:00,
2013-05-06 07:51:00,64.0,35.1,29.88,SE,135,2.7,2.7,34,0.00,,---,0.00,VWS V14.01,2013-05-06 14:51:00,
2013-05-06 07:56:00,64.2,35.3,29.88,NE,45,4.9,4.9,34,0.00,,---,0.00,VWS V14.01,2013-05-06 14:56:00,
2013-05-06 08:02:00,64.4,34.7,29.88,SE,135,5.4,5.4,33,0.00,,---,0.00,VWS V14.01,2013-05-06 15:02:00,
2013-05-06 08:07:00,64.8,35.0,29.88,South,180,1.1,1.1,33,0.00,,---,0.00,VWS V14.01,2013-05-06 15:07:00,
2013-05-06 08:12:00,65.1,35.3,29.88,NNW,338,4.3,4.3,33,0.00,,---,0.00,VWS V14.01,2013-05-06 15:12:00,
2013-05-06 08:17:00,66.0,36.1,29.88,East,90,1.6,1.6,33,0.00,,---,0.00,VWS V14.01,2013-05-06 15:17:00,
2013-05-06 08:22:00,65.8,35.2,29.88,SSE,158,6.0,6.0,32,0.00,,---,0.00,VWS V14.01,2013-05-06 15:22:00,
2013-05-06 08:27:00,66.6,35.8,29.88,ESE,112,3.1,3.1,32,0.00,,---,0.00,VWS V14.01,2013-05-06 15:27:00,
2013-05-06 08:32:00,66.7,35.2,29.88,ESE,112,5.8,5.8,31,0.00,,---,0.00,VWS V14.01,2013-05-06 15:32:00,
2013-05-06 08:37:00,67.3,35.6,29.85,ESE,112,3.4,3.4,31,0.00,,---,0.00,VWS V14.01,2013-05-06 15:37:00,
2013-05-06 08:42:00,68.0,35.4,29.85,NNE,22,2.0,2.0,30,0.00,,---,0.00,VWS V14.01,2013-05-06 15:42:00,
2013-05-06 08:47:00,67.8,35.3,29.85,South,180,3.6,3.6,30,0.00,,---,0.00,VWS V14.01,2013-05-06 15:47:00,
2013-05-06 08:52:00,67.8,34.4,29.85,East,90,5.4,5.4,29,0.00,,---,0.00,VWS V14.01,2013-05-06 15:52:00,
2013-05-06 08:57:00,67.8,34.4,29.85,SE,135,5.6,5.6,29,0.00,,---,0.00,VWS V14.01,2013-05-06 15:57:00,
2013-05-06 09:02:00,69.8,36.1,29.85,North,0,2.0,2.0,29,0.00,,---,0.00,VWS V14.01,2013-05-06 16:02:00,
2013-05-06 09:07:00,70.0,36.3,29.85,SE,135,3.4,3.4,29,0.00,,---,0.00,VWS V14.01,2013-05-06 16:07:00,
2013-05-06 09:12:00,70.9,37.1,29.85,ESE,112,1.6,1.6,29,0.00,,---,0.00,VWS V14.01,2013-05-06 16:12:00,
2013-05-06 09:18:00,71.4,36.7,29.85,WSW,248,0.0,0.0,28,0.00,,---,0.00,VWS V14.01,2013-05-06 16:18:00,
2013-05-06 09:23:00,72.3,36.5,29.85,South,180,1.6,1.6,27,0.00,,---,0.00,VWS V14.01,2013-05-06 16:23:00,
2013-05-06 09:28:00,72.1,36.3,29.85,South,180,1.1,1.1,27,0.00,,---,0.00,VWS V14.01,2013-05-06 16:28:00,
2013-05-06 09:33:00,72.5,36.7,29.85,SE,135,2.0,2.0,27,0.00,,---,0.00,VWS V14.01,2013-05-06 16:33:00,
2013-05-06 09:38:00,73.9,36.9,29.85,ESE,112,2.0,2.0,26,0.00,,---,0.00,VWS V14.01,2013-05-06 16:38:00,
2013-05-06 09:43:00,73.8,35.8,29.85,North,0,3.6,3.6,25,0.00,,---,0.00,VWS V14.01,2013-05-06 16:43:00,
2013-05-06 09:48:00,74.1,37.1,29.85,West,270,0.0,0.0,26,0.00,,---,0.00,VWS V14.01,2013-05-06 16:48:00,
2013-05-06 09:53:00,73.9,35.9,29.85,North,0,3.4,3.4,25,0.00,,---,0.00,VWS V14.01,2013-05-06 16:53:00,
2013-05-06 09:58:00,73.9,35.9,29.85,NW,315,0.0,0.0,25,0.00,,---,0.00,VWS V14.01,2013-05-06 16:58:00,
2013-05-06 10:03:00,74.7,36.5,29.85,NNW,338,1.6,1.6,25,0.00,,---,0.00,VWS V14.01,2013-05-06 17:03:00,
2013-05-06 10:08:00,75.7,36.4,29.85,North,0,0.0,0.0,24,0.00,,---,0.00,VWS V14.01,2013-05-06 17:08:00,
2013-05-06 10:13:00,76.3,36.9,29.85,East,90,3.8,3.8,24,0.00,,---,0.00,VWS V14.01,2013-05-06 17:13:00,
2013-05-06 10:18:00,76.6,37.2,29.82,WSW,248,1.1,1.1,24,0.00,,---,0.00,VWS V14.01,2013-05-06 17:18:00,
2013-05-06 10:24:00,77.9,37.2,29.82,NNW,338,5.4,5.4,23,0.00,,---,0.00,VWS V14.01,2013-05-06 17:24:00,
2013-05-06 10:29:00,75.0,35.8,29.82,North,0,3.6,3.6,24,0.00,,---,0.00,VWS V14.01,2013-05-06 17:29:00,
2013-05-06 10:34:00,76.6,37.2,29.82,NW,315,1.6,1.6,24,0.00,,---,0.00,VWS V14.01,2013-05-06 17:34:00,
2013-05-06 10:39:00,75.9,36.6,29.79,North,0,3.4,3.4,24,0.00,,---,0.00,VWS V14.01,2013-05-06 17:39:00,
2013-05-06 10:44:00,77.2,36.5,29.79,North,0,1.1,1.1,23,0.00,,---,0.00,VWS V14.01,2013-05-06 17:44:00,
2013-05-06 10:49:00,77.9,37.2,29.82,ENE,68,4.0,4.0,23,0.00,,---,0.00,VWS V14.01,2013-05-06 17:49:00,
2013-05-06 10:54:00,76.5,36.0,29.82,North,0,3.6,3.6,23,0.00,,---,0.00,VWS V14.01,2013-05-06 17:54:00,
2013-05-06 10:59:00,77.7,37.0,29.82,NW,315,2.9,2.9,23,0.00,,---,0.00,VWS V14.01,2013-05-06 17:59:00,
2013-05-06 11:04:00,78.3,37.5,29.82,North,0,3.4,3.4,23,0.00,,---,0.00,VWS V14.01,2013-05-06 18:04:00,
2013-05-06 11:09:00,78.8,36.8,29.82,NNW,338,0.0,0.0,22,0.00,,---,0.00,VWS V14.01,2013-05-06 18:09:00,
2013-05-06 11:14:00,80.1,37.8,29.82,NNW,338,2.5,2.5,22,0.00,,---,0.00,VWS V14.01,2013-05-06 18:14:00,
2013-05-06 11:19:00,81.1,37.5,29.82,NE,45,1.3,1.3,21,0.00,,---,0.00,VWS V14.01,2013-05-06 18:19:00,
2013-05-06 11:24:00,82.6,38.7,29.82,SW,225,0.0,0.0,21,0.00,,---,0.00,VWS V14.01,2013-05-06 18:24:00,
2013-05-06 11:29:00,82.4,38.6,29.82,NNE,22,0.0,0.0,21,0.00,,---,0.00,VWS V14.01,2013-05-06 18:29:00,
2013-05-06 11:34:00,83.1,39.2,29.79,SW,225,0.0,0.0,21,0.00,,---,0.00,VWS V14.01,2013-05-06 18:34:00,
2013-05-06 11:40:00,83.7,39.6,29.79,NW,315,0.0,0.0,21,0.00,,---,0.00,VWS V14.01,2013-05-06 18:40:00,
2013-05-06 11:45:00,83.8,38.5,29.79,North,0,3.6,3.6,20,0.00,,---,0.00,VWS V14.01,2013-05-06 18:45:00,
2013-05-06 11:50:00,83.8,38.5,29.79,SSW,202,2.0,2.0,20,0.00,,---,0.00,VWS V14.01,2013-05-06 18:50:00,
2013-05-06 11:55:00,84.9,39.4,29.79,North,0,2.5,2.5,20,0.00,,---,0.00,VWS V14.01,2013-05-06 18:55:00,
2013-05-06 12:00:00,84.0,38.7,29.79,North,0,4.3,4.3,20,0.00,,---,0.00,VWS V14.01,2013-05-06 19:00:00,
2013-05-06 12:05:00,84.2,38.8,29.76,North,0,4.3,4.3,20,0.00,,---,0.00,VWS V14.01,2013-05-06 19:05:00,
2013-05-06 12:10:00,84.4,37.7,29.76,NNE,22,0.0,0.0,19,0.00,,---,0.00,VWS V14.01,2013-05-06 19:10:00,
2013-05-06 12:15:00,84.7,38.0,29.76,NW,315,0.0,0.0,19,0.00,,---,0.00,VWS V14.01,2013-05-06 19:15:00,
2013-05-06 12:20:00,85.6,38.7,29.76,NE,45,3.1,3.1,19,0.00,,---,0.00,VWS V14.01,2013-05-06 19:20:00,
2013-05-06 12:25:00,86.7,39.6,29.76,NNW,338,1.1,1.1,19,0.00,,---,0.00,VWS V14.01,2013-05-06 19:25:00,
2013-05-06 12:30:00,85.5,38.5,29.76,North,0,3.1,3.1,19,0.00,,---,0.00,VWS V14.01,2013-05-06 19:30:00,
2013-05-06 12:35:00,86.4,37.9,29.76,North,0,6.5,6.5,18,0.00,,---,0.00,VWS V14.01,2013-05-06 19:35:00,
2013-05-06 12:40:00,88.0,39.2,29.76,North,0,3.6,3.6,18,0.00,,---,0.00,VWS V14.01,2013-05-06 19:40:00,
2013-05-06 12:45:00,86.9,38.3,29.76,NE,45,3.8,3.8,18,0.00,,---,0.00,VWS V14.01,2013-05-06 19:45:00,
2013-05-06 12:50:00,87.4,38.8,29.76,NE,45,3.8,3.8,18,0.00,,---,0.00,VWS V14.01,2013-05-06 19:50:00,
2013-05-06 12:56:00,88.2,39.4,29.76,NE,45,3.8,3.8,18,0.00,,---,0.00,VWS V14.01,2013-05-06 19:56:00,
2013-05-06 13:01:00,88.9,35.3,29.76,North,0,0.0,0.0,15,0.00,,---,0.00,VWS V14.01,2013-05-06 20:01:00,
2013-05-06 13:06:00,88.2,34.7,29.76,North,0,0.0,0.0,15,0.00,,---,0.00,VWS V14.01,2013-05-06 20:06:00,
2013-05-06 13:11:00,87.4,35.8,29.76,South,180,2.7,2.7,16,0.00,,---,0.00,VWS V14.01,2013-05-06 20:11:00,
2013-05-06 13:16:00,88.7,35.2,29.76,South,180,2.7,2.7,15,0.00,,---,0.00,VWS V14.01,2013-05-06 20:16:00,
2013-05-06 13:21:00,89.2,35.6,29.74,South,180,2.7,2.7,15,0.00,,---,0.00,VWS V14.01,2013-05-06 20:21:00,
2013-05-06 13:26:00,89.1,35.5,29.74,South,180,2.7,2.7,15,0.00,,---,0.00,VWS V14.01,2013-05-06 20:26:00,
2013-05-06 13:31:00,89.8,36.0,29.74,WNW,292,2.5,2.5,15,0.00,,---,0.00,VWS V14.01,2013-05-06 20:31:00,
2013-05-06 13:36:00,88.9,35.3,29.74,NNW,338,2.5,2.5,15,0.00,,---,0.00,VWS V14.01,2013-05-06 20:36:00,
2013-05-06 13:41:00,88.2,34.7,29.74,WNW,292,2.9,2.9,15,0.00,,---,0.00,VWS V14.01,2013-05-06 20:41:00,
2013-05-06 13:46:00,89.4,35.7,29.74,South,180,1.6,1.6,15,0.00,,---,0.00,VWS V14.01,2013-05-06 20:46:00,
2013-05-06 13:51:00,88.7,35.2,29.74,East,90,2.7,2.7,15,0.00,,---,0.00,VWS V14.01,2013-05-06 20:51:00,
2013-05-06 13:56:00,89.2,32.0,29.74,North,0,0.0,0.0,13,0.00,,---,0.00,VWS V14.01,2013-05-06 20:56:00,
2013-05-06 14:01:00,90.1,30.7,29.74,SE,135,2.5,2.5,12,0.00,,---,0.00,VWS V14.01,2013-05-06 21:01:00,
2013-05-06 14:06:00,89.1,31.9,29.74,East,90,2.5,2.5,13,0.00,,---,0.00,VWS V14.01,2013-05-06 21:06:00,
2013-05-06 14:12:00,89.8,30.5,29.74,ENE,68,4.9,4.9,12,0.00,,---,0.00,VWS V14.01,2013-05-06 21:12:00,
2013-05-06 14:17:00,90.1,30.7,29.74,NW,315,0.0,0.0,12,0.00,,---,0.00,VWS V14.01,2013-05-06 21:17:00,
2013-05-06 14:22:00,90.7,31.2,29.71,North,0,2.7,2.7,12,0.00,,---,0.00,VWS V14.01,2013-05-06 21:22:00,
2013-05-06 14:27:00,90.7,31.2,29.71,North,0,2.9,2.9,12,0.00,,---,0.00,VWS V14.01,2013-05-06 21:27:00,
2013-05-06 14:32:00,88.7,31.6,29.71,North,0,2.7,2.7,13,0.00,,---,0.00,VWS V14.01,2013-05-06 21:32:00,
2013-05-06 14:37:00,88.7,31.6,29.71,North,0,9.4,9.4,13,0.00,,---,0.00,VWS V14.01,2013-05-06 21:37:00,
2013-05-06 14:42:00,88.0,31.0,29.71,NW,315,2.0,2.0,13,0.00,,---,0.00,VWS V14.01,2013-05-06 21:42:00,
2013-05-06 14:47:00,88.3,31.3,29.71,North,0,3.8,3.8,13,0.00,,---,0.00,VWS V14.01,2013-05-06 21:47:00,
2013-05-06 14:52:00,88.7,31.6,29.71,North,0,4.0,4.0,13,0.00,,---,0.00,VWS V14.01,2013-05-06 21:52:00,
2013-05-06 14:57:00,88.7,31.6,29.71,North,0,0.0,0.0,13,0.00,,---,0.00,VWS V14.01,2013-05-06 21:57:00,
2013-05-06 15:02:00,89.1,31.9,29.71,North,0,3.4,3.4,13,0.00,,---,0.00,VWS V14.01,2013-05-06 22:02:00,
2013-05-06 15:07:00,88.9,31.7,29.68,NE,45,3.1,3.1,13,0.00,,---,0.00,VWS V14.01,2013-05-06 22:07:00,
2013-05-06 15:12:00,89.6,30.3,29.68,WSW,248,1.1,1.1,12,0.00,,---,0.00,VWS V14.01,2013-05-06 22:12:00,
2013-05-06 15:17:00,90.1,30.7,29.68,West,270,0.0,0.0,12,0.00,,---,0.00,VWS V14.01,2013-05-06 22:17:00,
2013-05-06 15:22:00,90.7,31.2,29.71,North,0,0.0,0.0,12,0.00,,---,0.00,VWS V14.01,2013-05-06 22:22:00,
2013-05-06 15:28:00,90.0,30.6,29.71,NE,45,4.3,4.3,12,0.00,,---,0.00,VWS V14.01,2013-05-06 22:28:00,
2013-05-06 15:33:00,88.2,31.2,29.71,SSW,202,6.0,6.0,13,0.00,,---,0.00,VWS V14.01,2013-05-06 22:33:00,
2013-05-06 15:38:00,88.9,31.7,29.68,NE,45,4.7,4.7,13,0.00,,---,0.00,VWS V14.01,2013-05-06 22:38:00,
2013-05-06 15:43:00,88.9,31.7,29.68,NE,45,2.5,2.5,13,0.00,,---,0.00,VWS V14.01,2013-05-06 22:43:00,
2013-05-06 15:48:00,88.7,31.6,29.71,SE,135,2.9,2.9,13,0.00,,---,0.00,VWS V14.01,2013-05-06 22:48:00,
2013-05-06 15:53:00,89.1,31.9,29.71,SSW,202,1.1,1.1,13,0.00,,---,0.00,VWS V14.01,2013-05-06 22:53:00,
2013-05-06 15:58:00,89.6,30.3,29.71,WSW,248,0.0,0.0,12,0.00,,---,0.00,VWS V14.01,2013-05-06 22:58:00,
2013-05-06 16:03:00,89.2,32.0,29.68,NNW,338,2.5,2.5,13,0.00,,---,0.00,VWS V14.01,2013-05-06 23:03:00,
2013-05-06 16:10:00,88.7,25.2,29.68,SE,135,3.4,3.4,10,0.00,,---,0.00,VWS V14.01,2013-05-06 23:10:00,
2013-05-06 16:15:00,88.7,31.6,29.68,North,0,1.6,1.6,13,0.00,,---,0.00,VWS V14.01,2013-05-06 23:15:00,
2013-05-06 16:20:00,88.9,31.7,29.68,SE,135,3.6,3.6,13,0.00,,---,0.00,VWS V14.01,2013-05-06 23:20:00,
2013-05-06 16:25:00,88.0,24.7,29.68,South,180,2.7,2.7,10,0.00,,---,0.00,VWS V14.01,2013-05-06 23:25:00,
2013-05-06 16:30:00,88.3,31.3,29.68,SSW,202,0.0,0.0,13,0.00,,---,0.00,VWS V14.01,2013-05-06 23:30:00,
2013-05-06 16:35:00,87.8,24.5,29.71,South,180,4.5,4.5,10,0.00,,---,0.00,VWS V14.01,2013-05-06 23:35:00,
2013-05-06 16:40:00,88.2,31.2,29.71,NE,45,2.5,2.5,13,0.00,,---,0.00,VWS V14.01,2013-05-06 23:40:00,
2013-05-06 16:45:00,88.2,31.2,29.71,North,0,1.1,1.1,13,0.00,,---,0.00,VWS V14.01,2013-05-06 23:45:00,
2013-05-06 16:50:00,88.0,31.0,29.68,SE,135,2.9,2.9,13,0.00,,---,0.00,VWS V14.01,2013-05-06 23:50:00,
2013-05-06 16:55:00,87.1,30.3,29.68,SE,135,2.5,2.5,13,0.00,,---,0.00,VWS V14.01,2013-05-06 23:55:00,
2013-05-06 17:00:00,87.1,30.3,29.68,East,90,2.7,2.7,13,0.00,,---,0.00,VWS V14.01,2013-05-07 00:00:00,
2013-05-06 17:05:00,87.1,30.3,29.68,NNW,338,1.3,1.3,13,0.00,,---,0.00,VWS V14.01,2013-05-07 00:05:00,
2013-05-06 17:10:00,87.3,30.5,29.68,SE,135,2.9,2.9,13,0.00,,---,0.00,VWS V14.01,2013-05-07 00:10:00,
2013-05-06 17:15:00,87.3,30.5,29.68,ENE,68,0.0,0.0,13,0.00,,---,0.00,VWS V14.01,2013-05-07 00:15:00,
2013-05-06 17:21:00,87.3,30.5,29.68,WNW,292,0.0,0.0,13,0.00,,---,0.00,VWS V14.01,2013-05-07 00:21:00,
2013-05-06 17:26:00,87.4,30.6,29.68,NNW,338,0.0,0.0,13,0.00,,---,0.00,VWS V14.01,2013-05-07 00:26:00,
2013-05-06 17:31:00,87.1,30.3,29.68,NW,315,2.7,2.7,13,0.00,,---,0.00,VWS V14.01,2013-05-07 00:31:00,
2013-05-06 17:36:00,86.7,30.0,29.68,SSW,202,0.0,0.0,13,0.00,,---,0.00,VWS V14.01,2013-05-07 00:36:00,
2013-05-06 17:41:00,85.6,29.2,29.68,North,0,3.4,3.4,13,0.00,,---,0.00,VWS V14.01,2013-05-07 00:41:00,
2013-05-06 17:46:00,85.1,28.8,29.68,NNW,338,2.5,2.5,13,0.00,,---,0.00,VWS V14.01,2013-05-07 00:46:00,
2013-05-06 17:51:00,84.9,28.6,29.65,North,0,1.3,1.3,13,0.00,,---,0.00,VWS V14.01,2013-05-07 00:51:00,
2013-05-06 17:55:00,84.2,28.1,29.65,North,0,3.8,3.8,13,0.00,,---,0.00,VWS V14.01,2013-05-07 00:55:00,
2013-05-06 18:01:00,84.0,29.8,29.65,NW,315,1.3,1.3,14,0.00,,---,0.00,VWS V14.01,2013-05-07 01:01:00,
2013-05-06 18:06:00,84.2,28.1,29.68,North,0,2.7,2.7,13,0.00,,---,0.00,VWS V14.01,2013-05-07 01:06:00,
2013-05-06 18:11:00,84.4,28.2,29.68,North,0,2.7,2.7,13,0.00,,---,0.00,VWS V14.01,2013-05-07 01:11:00,
2013-05-06 18:16:00,84.2,28.1,29.68,North,0,2.7,2.7,13,0.00,,---,0.00,VWS V14.01,2013-05-07 01:16:00,
2013-05-06 18:21:00,83.8,29.6,29.65,WNW,292,0.0,0.0,14,0.00,,---,0.00,VWS V14.01,2013-05-07 01:21:00,
2013-05-06 18:26:00,83.7,29.5,29.65,North,0,2.9,2.9,14,0.00,,---,0.00,VWS V14.01,2013-05-07 01:26:00,
2013-05-06 18:31:00,83.5,29.3,29.65,NW,315,1.3,1.3,14,0.00,,---,0.00,VWS V14.01,2013-05-07 01:31:00,
2013-05-06 18:36:00,83.3,29.2,29.65,NNW,338,1.1,1.1,14,0.00,,---,0.00,VWS V14.01,2013-05-07 01:36:00,
2013-05-06 18:41:00,82.8,28.8,29.65,North,0,2.9,2.9,14,0.00,,---,0.00,VWS V14.01,2013-05-07 01:41:00,
2013-05-06 18:46:00,82.6,28.6,29.65,East,90,2.2,2.2,14,0.00,,---,0.00,VWS V14.01,2013-05-07 01:46:00,
2013-05-06 18:51:00,82.0,28.2,29.65,North,0,3.8,3.8,14,0.00,,---,0.00,VWS V14.01,2013-05-07 01:51:00,
2013-05-06 18:56:00,81.5,27.8,29.65,NW,315,0.0,0.0,14,0.00,,---,0.00,VWS V14.01,2013-05-07 01:56:00,
2013-05-06 19:01:00,81.0,27.3,29.65,North,0,0.0,0.0,14,0.00,,---,0.00,VWS V14.01,2013-05-07 02:01:00,
2013-05-06 19:06:00,80.6,27.0,29.65,NW,315,0.0,0.0,14,0.00,,---,0.00,VWS V14.01,2013-05-07 02:06:00,
2013-05-06 19:11:00,80.4,28.6,29.65,WNW,292,2.0,2.0,15,0.00,,---,0.00,VWS V14.01,2013-05-07 02:11:00,
2013-05-06 19:17:00,80.2,28.4,29.65,ESE,112,0.0,0.0,15,0.00,,---,0.00,VWS V14.01,2013-05-07 02:17:00,
2013-05-06 19:22:00,79.7,28.0,29.65,North,0,0.0,0.0,15,0.00,,---,0.00,VWS V14.01,2013-05-07 02:22:00,
2013-05-06 19:27:00,79.5,27.9,29.65,North,0,0.0,0.0,15,0.00,,---,0.00,VWS V14.01,2013-05-07 02:27:00,
2013-05-06 19:32:00,78.6,27.1,29.65,North,0,0.0,0.0,15,0.00,,---,0.00,VWS V14.01,2013-05-07 02:32:00,
2013-05-06 19:37:00,77.9,26.6,29.65,NNW,338,0.0,0.0,15,0.00,,---,0.00,VWS V14.01,2013-05-07 02:37:00,
2013-05-06 19:42:00,76.8,25.7,29.65,SSW,202,0.0,0.0,15,0.00,,---,0.00,VWS V14.01,2013-05-07 02:42:00,
2013-05-06 19:47:00,75.0,28.7,29.65,SSW,202,0.0,0.0,18,0.00,,---,0.00,VWS V14.01,2013-05-07 02:47:00,
2013-05-06 19:52:00,73.6,31.3,29.65,SSW,202,0.0,0.0,21,0.00,,---,0.00,VWS V14.01,2013-05-07 02:52:00,
2013-05-06 19:57:00,72.7,31.7,29.65,SSW,202,0.0,0.0,22,0.00,,---,0.00,VWS V14.01,2013-05-07 02:57:00,
2013-05-06 20:02:00,71.8,30.9,29.65,SSW,202,0.0,0.0,22,0.00,,---,0.00,VWS V14.01,2013-05-07 03:02:00,
2013-05-06 20:07:00,70.5,31.0,29.65,SSW,202,0.0,0.0,23,0.00,,---,0.00,VWS V14.01,2013-05-07 03:07:00,
2013-05-06 20:12:00,69.6,30.2,29.65,SSW,202,0.0,0.0,23,0.00,,---,0.00,VWS V14.01,2013-05-07 03:12:00,
2013-05-06 20:17:00,68.7,30.5,29.65,SSW,202,0.0,0.0,24,0.00,,---,0.00,VWS V14.01,2013-05-07 03:17:00,
2013-05-06 20:22:00,68.0,29.9,29.65,SSW,202,0.0,0.0,24,0.00,,---,0.00,VWS V14.01,2013-05-07 03:22:00,
2013-05-06 20:27:00,67.5,30.4,29.65,South,180,0.0,0.0,25,0.00,,---,0.00,VWS V14.01,2013-05-07 03:27:00,
2013-05-06 20:33:00,66.9,31.0,29.65,South,180,0.0,0.0,26,0.00,,---,0.00,VWS V14.01,2013-05-07 03:33:00,
2013-05-06 20:38:00,66.6,30.6,29.68,South,180,0.0,0.0,26,0.00,,---,0.00,VWS V14.01,2013-05-07 03:38:00,
2013-05-06 20:43:00,66.2,30.3,29.68,South,180,0.0,0.0,26,0.00,,---,0.00,VWS V14.01,2013-05-07 03:43:00,
2013-05-06 20:48:00,65.7,30.8,29.68,SSW,202,0.0,0.0,27,0.00,,---,0.00,VWS V14.01,2013-05-07 03:48:00,
2013-05-06 20:53:00,65.3,30.5,29.68,SSW,202,0.0,0.0,27,0.00,,---,0.00,VWS V14.01,2013-05-07 03:53:00,
2013-05-06 20:58:00,65.1,30.3,29.68,SSW,202,0.0,0.0,27,0.00,,---,0.00,VWS V14.01,2013-05-07 03:58:00,
2013-05-06 21:01:00,64.9,30.2,29.68,SSW,202,0.0,0.0,27,0.00,,---,0.00,VWS V14.01,2013-05-07 04:01:00,
2013-05-06 21:02:00,64.9,30.2,29.68,SSW,202,0.0,0.0,27,0.00,,---,0.00,VWS V14.01,2013-05-07 04:02:00,
2013-05-06 21:07:00,64.2,29.6,29.68,ENE,68,0.0,0.0,27,0.00,,---,0.00,VWS V14.01,2013-05-07 04:07:00,
2013-05-06 21:12:00,63.5,29.8,29.68,SW,225,0.0,0.0,28,0.00,,---,0.00,VWS V14.01,2013-05-07 04:12:00,
2013-05-06 21:17:00,62.8,29.2,29.68,SW,225,0.0,0.0,28,0.00,,---,0.00,VWS V14.01,2013-05-07 04:17:00,
2013-05-06 21:23:00,62.4,29.8,29.71,SSW,202,0.0,0.0,29,0.00,,---,0.00,VWS V14.01,2013-05-07 04:23:00,
2013-05-06 21:28:00,62.2,31.2,29.71,South,180,0.0,0.0,31,0.00,,---,0.00,VWS V14.01,2013-05-07 04:28:00,
2013-05-06 21:33:00,61.9,31.7,29.68,South,180,0.0,0.0,32,0.00,,---,0.00,VWS V14.01,2013-05-07 04:33:00,
2013-05-06 21:38:00,61.5,32.9,29.68,South,180,2.2,2.2,34,0.00,,---,0.00,VWS V14.01,2013-05-07 04:38:00,
2013-05-06 21:43:00,61.2,32.6,29.68,SSW,202,2.7,2.7,34,0.00,,---,0.00,VWS V14.01,2013-05-07 04:43:00,
2013-05-06 21:48:00,61.0,32.4,29.71,South,180,0.0,0.0,34,0.00,,---,0.00,VWS V14.01,2013-05-07 04:48:00,
2013-05-06 21:53:00,60.3,32.5,29.71,ESE,112,0.0,0.0,35,0.00,,---,0.00,VWS V14.01,2013-05-07 04:53:00,
2013-05-06 21:58:00,59.9,31.5,29.71,SW,225,0.0,0.0,34,0.00,,---,0.00,VWS V14.01,2013-05-07 04:58:00,
2013-05-06 22:03:00,59.5,31.9,29.71,SSW,202,0.0,0.0,35,0.00,,---,0.00,VWS V14.01,2013-05-07 05:03:00,
2013-05-06 22:08:00,59.5,31.9,29.71,SSW,202,0.0,0.0,35,0.00,,---,0.00,VWS V14.01,2013-05-07 05:08:00,
2013-05-06 22:13:00,59.4,31.7,29.71,SSW,202,0.0,0.0,35,0.00,,---,0.00,VWS V14.01,2013-05-07 05:13:00,
2013-05-06 22:18:00,58.8,32.0,29.71,SSW,202,0.0,0.0,36,0.00,,---,0.00,VWS V14.01,2013-05-07 05:18:00,
2013-05-06 22:23:00,58.3,31.5,29.71,SSW,202,0.0,0.0,36,0.00,,---,0.00,VWS V14.01,2013-05-07 05:23:00,
2013-05-06 22:28:00,57.7,31.0,29.71,SSW,202,0.0,0.0,36,0.00,,---,0.00,VWS V14.01,2013-05-07 05:28:00,
2013-05-06 22:33:00,57.6,30.8,29.71,SSW,202,0.0,0.0,36,0.00,,---,0.00,VWS V14.01,2013-05-07 05:33:00,
2013-05-06 22:39:00,57.4,31.3,29.71,SSW,202,0.0,0.0,37,0.00,,---,0.00,VWS V14.01,2013-05-07 05:39:00,
2013-05-06 22:44:00,56.8,30.9,29.71,SSW,202,0.0,0.0,37,0.00,,---,0.00,VWS V14.01,2013-05-07 05:44:00,
2013-05-06 22:49:00,56.5,31.2,29.71,SSW,202,0.0,0.0,38,0.00,,---,0.00,VWS V14.01,2013-05-07 05:49:00,
2013-05-06 22:54:00,56.5,31.2,29.71,South,180,0.0,0.0,38,0.00,,---,0.00,VWS V14.01,2013-05-07 05:54:00,
2013-05-06 22:59:00,56.3,31.0,29.71,South,180,0.0,0.0,38,0.00,,---,0.00,VWS V14.01,2013-05-07 05:59:00,
2013-05-06 23:04:00,55.9,30.7,29.68,South,180,0.0,0.0,38,0.00,,---,0.00,VWS V14.01,2013-05-07 06:04:00,
2013-05-06 23:09:00,55.4,30.9,29.68,South,180,0.0,0.0,39,0.00,,---,0.00,VWS V14.01,2013-05-07 06:09:00,
2013-05-06 23:14:00,55.2,31.3,29.68,South,180,0.0,0.0,40,0.00,,---,0.00,VWS V14.01,2013-05-07 06:14:00,
2013-05-06 23:19:00,55.2,31.3,29.68,SSW,202,0.0,0.0,40,0.00,,---,0.00,VWS V14.01,2013-05-07 06:19:00,
2013-05-06 23:24:00,54.9,30.4,29.68,SW,225,0.0,0.0,39,0.00,,---,0.00,VWS V14.01,2013-05-07 06:24:00,
2013-05-06 23:29:00,54.9,31.0,29.68,SW,225,0.0,0.0,40,0.00,,---,0.00,VWS V14.01,2013-05-07 06:29:00,
2013-05-06 23:34:00,54.3,30.5,29.71,SW,225,0.0,0.0,40,0.00,,---,0.00,VWS V14.01,2013-05-07 06:34:00,
2013-05-06 23:39:00,54.3,31.7,29.71,SW,225,0.0,0.0,42,0.00,,---,0.00,VWS V14.01,2013-05-07 06:39:00,
2013-05-06 23:44:00,54.1,31.0,29.71,SW,225,0.0,0.0,41,0.00,,---,0.00,VWS V14.01,2013-05-07 06:44:00,
2013-05-06 23:49:00,53.8,31.2,29.71,SW,225,0.0,0.0,42,0.00,,---,0.00,VWS V14.01,2013-05-07 06:49:00,
2013-05-06 23:54:00,53.6,32.2,29.71,SW,225,0.0,0.0,44,0.00,,---,0.00,VWS V14.01,2013-05-07 06:54:00,
2013-05-06 23:59:00,53.4,32.1,29.71,SSW,202,0.0,0.0,44,0.00,,---,0.00,VWS V14.01,2013-05-07 06:59:00,